W4BJB-13 Weather Reports


time (UTC)temp
C
wind
direction
speed
KPH
gust
KPH
rain 1hr
cm
rain 24hr
cm
rain mn
cm
humidity
%
barometer
mb
20260504110505 8 100 0.0 1.6 0.00 0.00 0.00 90 987.1
20260504100505 8 83 0.0 1.6 0.00 0.00 0.00 87 987.0
20260504082005 10 105 0.0 1.6 0.00 0.00 0.00 83 987.2
20260504081505 10 110 0.0 1.6 0.00 0.00 0.00 83 987.2
20260504081005 10 89 0.0 1.6 0.00 0.00 0.00 83 987.3
20260504080504 10 73 0.0 1.6 0.00 0.00 0.00 84 987.4
20260504050504 11 105 0.0 1.6 0.00 0.00 0.00 78 988.4
20260504050005 11 94 0.0 1.6 0.00 0.00 0.00 77 988.5
20260504045504 11 103 0.0 1.6 0.00 0.00 0.00 78 988.5
20260504044505 11 84 0.0 1.6 0.00 0.00 0.00 76 988.4
20260504044004 11 98 0.0 3.2 0.00 0.00 0.00 75 988.5
20260504043504 12 97 1.6 3.2 0.00 0.00 0.00 74 988.5
20260504043005 12 88 0.0 1.6 0.00 0.00 0.00 75 988.5
20260504042504 12 92 0.0 1.6 0.00 0.00 0.00 73 988.5
20260504042004 12 106 0.0 1.6 0.00 0.00 0.00 73 988.6
20260504041504 12 77 0.0 3.2 0.00 0.00 0.00 71 988.6
20260504041004 12 81 0.0 1.6 0.00 0.00 0.00 72 988.5
20260504040504 12 123 0.0 1.6 0.00 0.00 0.00 71 988.6
20260504040004 12 109 0.0 1.6 0.00 0.00 0.00 73 988.6
20260504035504 12 99 0.0 1.6 0.00 0.00 0.00 72 988.7
20260504035004 12 101 0.0 1.6 0.00 0.00 0.00 72 988.7
20260504034504 12 87 0.0 3.2 0.00 0.00 0.00 72 988.7
20260504033504 12 126 0.0 1.6 0.00 0.00 0.00 72 988.6
20260504033004 12 123 0.0 1.6 0.00 0.00 0.00 73 988.6
20260504032504 12 88 0.0 1.6 0.00 0.00 0.00 72 988.6
20260504032004 12 77 0.0 1.6 0.00 0.00 0.00 71 988.7
20260504031505 12 87 0.0 1.6 0.00 0.00 0.00 73 988.8
20260504031003 12 137 0.0 1.6 0.00 0.00 0.00 72 988.9
20260504030504 12 102 0.0 3.2 0.00 0.00 0.00 72 988.9
20260504030004 12 93 0.0 1.6 0.00 0.00 0.00 74 988.9
20260504025503 12 150 0.0 1.6 0.00 0.00 0.00 74 988.9
20260504025005 12 152 0.0 1.6 0.00 0.00 0.00 73 988.9
20260504024503 12 137 0.0 1.6 0.00 0.00 0.00 72 989.0
20260504024003 12 111 0.0 1.6 0.00 0.00 0.00 73 988.9
20260504023504 12 146 0.0 0.0 0.00 0.00 0.00 74 988.8
20260504023004 12 148 0.0 1.6 0.00 0.00 0.00 75 988.7
20260504022504 12 124 0.0 1.6 0.00 0.00 0.00 75 988.7
20260504022004 12 131 0.0 1.6 0.00 0.00 0.00 74 988.7
20260504021504 12 124 0.0 1.6 0.00 0.00 0.00 74 988.6
20260504021005 12 156 0.0 1.6 0.00 0.00 0.00 74 988.6
20260504020504 12 163 0.0 1.6 0.00 0.00 0.00 74 988.5
20260504020005 12 165 0.0 1.6 0.00 0.00 0.00 74 988.5
20260504015506 12 151 0.0 1.6 0.00 0.00 0.00 74 988.5
20260504015005 12 193 0.0 1.6 0.00 0.00 0.00 74 988.5
20260504014505 12 157 0.0 1.6 0.00 0.00 0.00 73 988.4
20260504014006 12 154 0.0 1.6 0.00 0.00 0.00 72 988.4
20260504013505 13 182 0.0 1.6 0.00 0.00 0.00 72 988.4
20260504013005 13 176 0.0 1.6 0.00 0.00 0.00 70 988.4
20260504012505 13 180 0.0 1.6 0.00 0.00 0.00 68 988.4
20260504012005 13 162 1.6 1.6 0.00 0.00 0.00 68 988.3
20260504010506 14 151 0.0 1.6 0.00 0.00 0.00 64 988.4
20260504005505 15 148 0.0 1.6 0.00 0.00 0.00 62 988.3
20260504005004 15 146 0.0 1.6 0.00 0.00 0.00 61 988.3
20260504004505 16 151 0.0 0.0 0.00 0.00 0.00 59 988.4
20260504004005 16 151 0.0 1.6 0.00 0.00 0.00 57 988.3
20260504003504 16 143 0.0 1.6 0.00 0.00 0.00 57 988.3
20260504003005 17 171 0.0 1.6 0.00 0.00 0.00 56 988.3
20260504002506 17 186 0.0 1.6 0.00 0.00 0.00 54 988.4
20260504002005 17 130 0.0 1.6 0.00 0.00 0.00 54 988.4
20260504001005 18 157 0.0 1.6 0.00 0.00 0.00 50 988.5
20260504000505 18 264 0.0 1.6 0.00 0.00 0.00 44 988.5
20260503234506 18 240 1.6 4.8 0.00 0.00 0.00 40 988.6
20260503234004 18 269 1.6 3.2 0.00 0.00 0.00 42 988.6
20260503233005 19 251 1.6 4.8 0.00 0.00 0.00 38 988.5
20260503232505 19 251 1.6 8.0 0.00 0.00 0.00 40 988.5
20260503232004 19 218 3.2 8.0 0.00 0.00 0.00 38 988.5
20260503231005 19 240 1.6 3.2 0.00 0.00 0.00 36 988.5
20260503230505 19 304 1.6 4.8 0.00 0.00 0.00 36 988.6
20260503230004 19 296 3.2 4.8 0.00 0.00 0.00 37 988.6
20260503225505 20 247 1.6 4.8 0.00 0.00 0.00 38 988.7
20260503225005 20 290 3.2 4.8 0.00 0.00 0.00 38 988.7
20260503224505 20 312 3.2 4.8 0.00 0.00 0.00 39 988.8
20260503224005 20 200 1.6 4.8 0.00 0.00 0.00 39 988.9
20260503223505 20 257 1.6 9.7 0.00 0.00 0.00 40 989.0
20260503222505 20 329 3.2 8.0 0.00 0.00 0.00 38 989.2
20260503222005 20 257 3.2 12.9 0.00 0.00 0.00 38 989.3
20260503221504 20 309 3.2 8.0 0.00 0.00 0.00 38 989.3
20260503221005 20 316 1.6 8.0 0.00 0.00 0.00 38 989.4
20260503220505 20 296 3.2 8.0 0.00 0.00 0.00 36 989.4
20260503220005 20 231 3.2 4.8 0.00 0.00 0.00 38 989.4
20260503215504 20 178 1.6 4.8 0.00 0.00 0.00 39 989.5
20260503215005 20 293 3.2 8.0 0.00 0.00 0.00 37 989.5
20260503214504 20 260 1.6 3.2 0.00 0.00 0.00 37 989.5
20260503214005 20 327 3.2 8.0 0.00 0.00 0.00 37 989.5
20260503213504 20 281 3.2 8.0 0.00 0.00 0.00 36 989.7
20260503213005 20 272 3.2 9.7 0.00 0.00 0.00 36 989.8
20260503212504 20 318 1.6 3.2 0.00 0.00 0.00 37 989.7
20260503212004 20 234 3.2 4.8 0.00 0.00 0.00 38 989.8
20260503211505 20 301 1.6 8.0 0.00 0.00 0.00 41 989.9
20260503211005 20 194 3.2 8.0 0.00 0.00 0.00 37 990.0
20260503210504 20 279 3.2 4.8 0.00 0.00 0.00 38 990.0
20260503210005 20 206 3.2 4.8 0.00 0.00 0.00 39 990.1
20260503205004 20 298 1.6 9.7 0.00 0.00 0.00 40 990.2
20260503204504 20 257 1.6 8.0 0.00 0.00 0.00 38 990.3
20260503204005 20 339 4.8 9.7 0.00 0.00 0.00 38 990.4
20260503203505 20 304 3.2 8.0 0.00 0.00 0.00 40 990.6
20260503203004 20 156 1.6 8.0 0.00 0.00 0.00 38 990.7
20260503202505 20 200 1.6 9.7 0.00 0.00 0.00 38 990.7
20260503202004 20 349 3.2 8.0 0.00 0.00 0.00 38 990.8
20260503201504 20 150 1.6 8.0 0.00 0.00 0.00 38 991.0
20260503201004 20 220 4.8 8.0 0.00 0.00 0.00 37 991.0
20260503200504 20 232 3.2 4.8 0.00 0.00 0.00 37 991.0
20260503200004 20 316 1.6 4.8 0.00 0.00 0.00 38 991.1
20260503195505 19 357 1.6 8.0 0.00 0.00 0.00 39 991.3
20260503195004 19 79 3.2 11.3 0.00 0.00 0.00 39 991.4
20260503194504 19 303 4.8 11.3 0.00 0.00 0.00 37 991.4
20260503194004 19 311 4.8 9.7 0.00 0.00 0.00 38 991.6
20260503193504 19 264 1.6 8.0 0.00 0.00 0.00 37 991.6
20260503193004 19 185 4.8 11.3 0.00 0.00 0.00 37 991.8
20260503192505 19 184 3.2 8.0 0.00 0.00 0.00 38 991.8
20260503191504 19 343 3.2 9.7 0.00 0.00 0.00 36 991.9
20260503191004 19 281 3.2 8.0 0.00 0.00 0.00 38 992.1
20260503190505 18 5 3.2 8.0 0.00 0.00 0.00 37 992.1
20260503185504 18 315 1.6 8.0 0.00 0.00 0.00 38 992.1
20260503185004 18 282 1.6 8.0 0.00 0.00 0.00 40 992.3
20260503183503 18 304 3.2 11.3 0.00 0.00 0.00 41 992.6
20260503183004 18 221 1.6 4.8 0.00 0.00 0.00 39 992.7
20260503182504 18 264 3.2 9.7 0.00 0.00 0.00 39 992.6
20260503182005 17 330 1.6 4.8 0.00 0.00 0.00 39 992.7
20260503181505 17 224 1.6 4.8 0.00 0.00 0.00 39 992.7
20260503181005 17 271 3.2 8.0 0.00 0.00 0.00 40 992.7
20260503180005 17 251 1.6 4.8 0.00 0.00 0.00 39 992.8
20260503175503 17 163 1.6 3.2 0.00 0.00 0.00 39 992.9
20260503175004 17 307 1.6 3.2 0.00 0.00 0.00 41 992.9
20260503174005 16 187 1.6 4.8 0.00 0.00 0.00 40 993.0
20260503173504 16 243 3.2 8.0 0.00 0.00 0.00 39 993.1
20260503173004 16 2 3.2 8.0 0.00 0.00 0.00 39 993.2
20260503172504 16 281 1.6 11.3 0.00 0.00 0.00 45 993.3
20260503172004 16 163 3.2 8.0 0.00 0.00 0.00 45 993.3
20260503171505 16 200 1.6 4.8 0.00 0.00 0.00 43 993.4
20260503170504 16 232 1.6 3.2 0.00 0.00 0.00 44 993.4
20260503151005 12 166 1.6 4.8 0.00 0.00 0.00 48 994.4
20260503150504 12 328 1.6 4.8 0.00 0.00 0.00 47 994.4
20260503131004 6 152 0.0 1.6 0.00 0.00 0.00 97 994.4
20260503130504 6 141 0.0 1.6 0.00 0.00 0.00 97 994.3